Zurück zum Katalog

STARLINK-30836

AktivKommunikationVLEO
NORAD 58221·PAYLOAD·🇺🇸 United States

Gestartet Nov 3, 2023 von Cape Canaveral Space Force Station

Loading…

Nächste Überflüge (nächste 24 Stunden)

TLE

AktuellSource: CelesTrak SupGP

Epoche: Sep 15, 2026, 02:00 UTC

1 58221C 23170R   26258.08381944 -.00045650  00000+0 -16536-2 0  2583
2 58221  42.9992 204.7156 0001049 271.5531  93.2384 15.27599177    11

Verfolge STARLINK-30836 in Echtzeit mit AllMySat

Download on the App Store